Regional Weather Roundup
Issued by NWS

Home | Current Version | Previous Version | Graphics & Text | Print | Product List | Glossary On
Versions: 1 2 3 4 5 6 7 8 9 10 11 12 13 14 15 16 17 18 19 20 21 22 23 24 25 26 27 28 29 30 31 32 33 34 35 36 37 38 39 40 41 42 43 44 45 46 47 48 49 50
977
ASUS44 KJAN 261103
RWRMS

MISSISSIPPI HOURLY WEATHER ROUNDUP
NATIONAL WEATHER SERVICE JACKSON MS
500 AM CST WED NOV 26 2014

NOTE: "FAIR: INDICATES FEW OR NO CLOUDS BELOW 12,000 FEET WITH NO
SIGNIFICANT WEATHER AND/OR OBSTRUCTIONS TO VISIBILITY.

MSZ001>002-007>008-010>013-018>021-025>028-034>036-261200-
NORTHWEST MISSISSIPPI

CITY           SKY/WX    TMP DP  RH WIND       PRES   REMARKS
CLARKSDALE     FAIR      32  30  93 CALM      30.15F
CLEVELAND      FAIR      36  31  82 SE6       30.13F WCI  31
GREENWOOD      CLEAR     28  24  85 CALM      30.16F
GREENVILLE     MOCLDY    35  29  78 S7        30.14F WCI  29
GRENADA        FAIR      27  27 100 CALM      30.17F
OLIVE BRANCH   CLEAR     28  28 100 CALM      30.14F
OXFORD         FAIR      27  25  93 CALM      30.16F
TUNICA         SUNNY     30  28  93 SE7       30.16F WCI  23
$$

MSZ003>006-009-014>017-022>024-029>033-037>039-261200-
NORTHEAST MISSISSIPPI

CITY           SKY/WX    TMP DP  RH WIND       PRES   REMARKS
COLUMBUS AFB   CLEAR     26  23  91 CALM      30.18R
CORINTH        FAIR      27  23  86 CALM      30.15S
GOLDN TRIANGLE CLEAR     28  25  86 CALM      30.16S
STARKVILLE       N/A     27  27 100 CALM      30.17F
TUPELO         CLEAR     29  25  85 CALM      30.15F
$$

MSZ040-058-261200-
CENTRAL MISSISSIPPI

CITY           SKY/WX    TMP DP  RH WIND       PRES   REMARKS
JACKSON INTL   CLEAR     28  26  92 CALM      30.17F
JACKSON HAWKNS CLEAR     31  29  92 CALM      30.18F
MERIDIAN KEY   CLEAR     28  26  92 SW3       30.19S
MERIDIAN NAS   CLEAR     29  26  89 CALM      30.19R
RAYMOND        FAIR      28  25  86 MISG      30.19S
VICKSBURG      MOCLDY    32  30  92 CALM      30.18F
$$

MSZ059>079-261200-
SOUTH MISSISSIPPI

CITY           SKY/WX    TMP DP  RH WIND       PRES   REMARKS
BROOKHAVEN     FAIR      30  30 100 CALM      30.20S
HATTIESBURG    CLEAR     31  29  92 CALM      30.22R
MCCOMB         CLEAR     30  27  88 CALM      30.20R
NATCHEZ        PTCLDY    32  28  86 SE3       30.19S
PINE BELT      CLEAR     30  27  86 W3        30.20R
$$

MSZ080>082-261200-
COASTAL MISSISSIPPI

CITY           SKY/WX    TMP DP  RH WIND       PRES   REMARKS
BILOXI         CLEAR     39  31  72 N6        30.21R
PASCAGOULA     CLEAR     31  28  89 CALM      30.20R
GULFPORT       CLEAR     34  31  88 CALM      30.21R
$$



USA.gov is the U.S. government's official web portal to all federal, state and local government web resources and services.